| time (UTC) | temp C | wind direction | speed KPH | gust KPH | rain 1hr cm | rain 24hr cm | rain mn cm | humidity % | barometer mb |
| 20260504232002 | 15 | 228 | 6.4 | 17.7 | 0.00 | 0.00 | 0.00 | 53 | 1009.4 |
| 20260504231502 | 16 | 248 | 9.7 | 17.7 | 0.00 | 0.00 | 0.00 | 52 | 1009.4 |
| 20260504231002 | 16 | 229 | 6.4 | 16.1 | 0.00 | 0.00 | 0.00 | 51 | 1009.3 |
| 20260504230503 | 16 | 188 | 3.2 | 12.9 | 0.00 | 0.00 | 0.00 | 50 | 1009.2 |
| 20260504230006 | 16 | 304 | 4.8 | 12.9 | 0.00 | 0.00 | 0.00 | 50 | 1009.2 |
| 20260504225502 | 16 | 257 | 4.8 | 12.9 | 0.00 | 0.00 | 0.00 | 50 | 1009.2 |
| 20260504225002 | 16 | 263 | 4.8 | 22.5 | 0.00 | 0.00 | 0.00 | 48 | 1009.2 |
| 20260504224502 | 16 | 263 | 8.0 | 22.5 | 0.00 | 0.00 | 0.00 | 49 | 1009.1 |
| 20260504224002 | 17 | 250 | 8.0 | 20.9 | 0.00 | 0.00 | 0.00 | 48 | 1009.2 |
| 20260504223502 | 17 | 252 | 8.0 | 19.3 | 0.00 | 0.00 | 0.00 | 48 | 1009.1 |
| 20260504223004 | 17 | 247 | 6.4 | 20.9 | 0.00 | 0.00 | 0.00 | 48 | 1009.1 |
| 20260504222503 | 17 | 264 | 8.0 | 20.9 | 0.00 | 0.00 | 0.00 | 47 | 1009.1 |
| 20260504222004 | 17 | 184 | 4.8 | 20.9 | 0.00 | 0.00 | 0.00 | 48 | 1009.0 |
| 20260504221505 | 17 | 169 | 3.2 | 17.7 | 0.00 | 0.00 | 0.00 | 48 | 1009.0 |
| 20260504221003 | 17 | 135 | 9.7 | 19.3 | 0.00 | 0.00 | 0.00 | 47 | 1009.0 |
| 20260504220503 | 17 | 196 | 11.3 | 22.5 | 0.00 | 0.00 | 0.00 | 47 | 1009.0 |
| 20260504220003 | 17 | 290 | 12.9 | 22.5 | 0.00 | 0.00 | 0.00 | 45 | 1009.1 |
| 20260504215503 | 17 | 271 | 9.7 | 22.5 | 0.00 | 0.00 | 0.00 | 45 | 1009.0 |
| 20260504215004 | 18 | 220 | 12.9 | 25.7 | 0.00 | 0.00 | 0.00 | 44 | 1009.0 |
| 20260504214504 | 18 | 245 | 11.3 | 25.7 | 0.00 | 0.00 | 0.00 | 44 | 1009.0 |
| 20260504214002 | 18 | 258 | 11.3 | 20.9 | 0.00 | 0.00 | 0.00 | 44 | 1009.1 |
| 20260504213503 | 18 | 284 | 4.8 | 20.9 | 0.00 | 0.00 | 0.00 | 45 | 1008.9 |
| 20260504213013 | 18 | 254 | 8.0 | 20.9 | 0.00 | 0.00 | 0.00 | 43 | 1009.0 |
| 20260504212503 | 18 | 63 | 4.8 | 25.7 | 0.00 | 0.00 | 0.00 | 43 | 1008.9 |
| 20260504212004 | 18 | 232 | 8.0 | 25.7 | 0.00 | 0.00 | 0.00 | 43 | 1009.0 |
| 20260504211511 | 18 | 231 | 12.9 | 25.7 | 0.00 | 0.00 | 0.00 | 43 | 1009.0 |
| 20260504211002 | 18 | 261 | 11.3 | 24.1 | 0.00 | 0.00 | 0.00 | 42 | 1009.0 |
| 20260504210503 | 19 | 297 | 8.0 | 20.9 | 0.00 | 0.00 | 0.00 | 42 | 1008.9 |
| 20260504210006 | 19 | 249 | 8.0 | 25.7 | 0.00 | 0.00 | 0.00 | 42 | 1008.9 |
| 20260504205503 | 19 | 269 | 8.0 | 25.7 | 0.00 | 0.00 | 0.00 | 41 | 1008.9 |
| 20260504205003 | 19 | 269 | 6.4 | 19.3 | 0.00 | 0.00 | 0.00 | 42 | 1008.9 |
| 20260504204504 | 19 | 261 | 8.0 | 16.1 | 0.00 | 0.00 | 0.00 | 42 | 1008.9 |
| 20260504204003 | 19 | 267 | 8.0 | 20.9 | 0.00 | 0.00 | 0.00 | 42 | 1008.9 |
| 20260504203506 | 19 | 234 | 8.0 | 20.9 | 0.00 | 0.00 | 0.00 | 44 | 1009.0 |
| 20260504203007 | 19 | 264 | 9.7 | 19.3 | 0.00 | 0.00 | 0.00 | 41 | 1008.9 |
| 20260504202504 | 19 | 265 | 6.4 | 25.7 | 0.00 | 0.00 | 0.00 | 42 | 1009.0 |
| 20260504202003 | 19 | 197 | 11.3 | 22.5 | 0.00 | 0.00 | 0.00 | 41 | 1008.9 |
| 20260504201505 | 19 | 182 | 6.4 | 22.5 | 0.00 | 0.00 | 0.00 | 44 | 1008.9 |
| 20260504201002 | 18 | 319 | 11.3 | 22.5 | 0.00 | 0.00 | 0.00 | 42 | 1008.8 |
| 20260504200504 | 18 | 254 | 14.5 | 22.5 | 0.00 | 0.00 | 0.00 | 40 | 1008.9 |
| 20260504200004 | 19 | 309 | 4.8 | 17.7 | 0.00 | 0.00 | 0.00 | 40 | 1008.9 |
| 20260504195502 | 19 | 246 | 6.4 | 19.3 | 0.00 | 0.00 | 0.00 | 39 | 1008.9 |
| 20260504195002 | 19 | 246 | 11.3 | 25.7 | 0.00 | 0.00 | 0.00 | 39 | 1008.9 |
| 20260504194504 | 19 | 244 | 12.9 | 25.7 | 0.00 | 0.00 | 0.00 | 40 | 1008.9 |
| 20260504194002 | 19 | 273 | 12.9 | 22.5 | 0.00 | 0.00 | 0.00 | 37 | 1008.9 |
| 20260504193501 | 19 | 273 | 11.3 | 22.5 | 0.00 | 0.00 | 0.00 | 37 | 1008.8 |
| 20260504193004 | 19 | 252 | 8.0 | 22.5 | 0.00 | 0.00 | 0.00 | 37 | 1008.8 |
| 20260504192502 | 19 | 268 | 11.3 | 29.0 | 0.00 | 0.00 | 0.00 | 36 | 1008.8 |
| 20260504192003 | 19 | 315 | 11.3 | 29.0 | 0.00 | 0.00 | 0.00 | 36 | 1008.9 |
| 20260504191504 | 19 | 261 | 9.7 | 22.5 | 0.00 | 0.00 | 0.00 | 36 | 1008.8 |
| 20260504191003 | 19 | 276 | 12.9 | 24.1 | 0.00 | 0.00 | 0.00 | 35 | 1008.9 |
| 20260504190503 | 20 | 240 | 8.0 | 24.1 | 0.00 | 0.00 | 0.00 | 38 | 1009.0 |
| 20260504190003 | 20 | 244 | 6.4 | 20.9 | 0.00 | 0.00 | 0.00 | 35 | 1009.0 |
| 20260504185506 | 19 | 232 | 6.4 | 22.5 | 0.00 | 0.00 | 0.00 | 34 | 1009.0 |
| 20260504185002 | 19 | 232 | 6.4 | 22.5 | 0.00 | 0.00 | 0.00 | 37 | 1009.0 |
| 20260504184511 | 19 | 212 | 8.0 | 17.7 | 0.00 | 0.00 | 0.00 | 37 | 1009.0 |
| 20260504184003 | 19 | 215 | 11.3 | 24.1 | 0.00 | 0.00 | 0.00 | 34 | 1009.1 |
| 20260504183503 | 19 | 279 | 11.3 | 24.1 | 0.00 | 0.00 | 0.00 | 35 | 1009.1 |
| 20260504183005 | 19 | 204 | 8.0 | 20.9 | 0.00 | 0.00 | 0.00 | 35 | 1009.2 |
| 20260504182506 | 19 | 305 | 11.3 | 24.1 | 0.00 | 0.00 | 0.00 | 36 | 1009.3 |
| 20260504182002 | 19 | 317 | 14.5 | 24.1 | 0.00 | 0.00 | 0.00 | 35 | 1009.3 |
| 20260504181504 | 19 | 270 | 14.5 | 24.1 | 0.00 | 0.00 | 0.00 | 35 | 1009.3 |
| 20260504181003 | 19 | 312 | 14.5 | 24.1 | 0.00 | 0.00 | 0.00 | 34 | 1009.5 |
| 20260504180503 | 19 | 159 | 6.4 | 22.5 | 0.00 | 0.00 | 0.00 | 34 | 1009.5 |
| 20260504180006 | 19 | 269 | 6.4 | 25.7 | 0.00 | 0.00 | 0.00 | 37 | 1009.6 |
| 20260504175505 | 19 | 276 | 11.3 | 25.7 | 0.00 | 0.00 | 0.00 | 34 | 1009.5 |
| 20260504175004 | 18 | 287 | 16.1 | 25.7 | 0.00 | 0.00 | 0.00 | 35 | 1009.6 |
| 20260504174502 | 18 | 281 | 12.9 | 20.9 | 0.00 | 0.00 | 0.00 | 35 | 1009.7 |
| 20260504174002 | 18 | 279 | 9.7 | 20.9 | 0.00 | 0.00 | 0.00 | 36 | 1009.7 |
| 20260504173506 | 18 | 205 | 8.0 | 19.3 | 0.00 | 0.00 | 0.00 | 35 | 1009.8 |
| 20260504173008 | 18 | 283 | 6.4 | 22.5 | 0.00 | 0.00 | 0.00 | 37 | 1009.8 |
| 20260504172503 | 18 | 280 | 9.7 | 22.5 | 0.00 | 0.00 | 0.00 | 35 | 1009.9 |
| 20260504172003 | 18 | 309 | 11.3 | 22.5 | 0.00 | 0.00 | 0.00 | 37 | 1009.8 |
| 20260504171504 | 18 | 257 | 9.7 | 22.5 | 0.00 | 0.00 | 0.00 | 34 | 1009.7 |
| 20260504171002 | 18 | 139 | 9.7 | 22.5 | 0.00 | 0.00 | 0.00 | 34 | 1009.8 |
| 20260504170503 | 18 | 241 | 11.3 | 22.5 | 0.00 | 0.00 | 0.00 | 34 | 1010.0 |
| 20260504151008 | 17 | 293 | 8.0 | 27.4 | 0.00 | 0.00 | 0.00 | 37 | 1010.9 |
| 20260504150504 | 17 | 297 | 12.9 | 33.8 | 0.00 | 0.00 | 0.00 | 36 | 1011.1 |
| 20260504141002 | 16 | 275 | 14.5 | 27.4 | 0.00 | 0.00 | 0.00 | 39 | 1011.8 |
| 20260504140502 | 16 | 274 | 12.9 | 22.5 | 0.00 | 0.00 | 0.00 | 38 | 1011.8 |
| 20260504130506 | 14 | 270 | 9.7 | 19.3 | 0.00 | 0.00 | 0.00 | 46 | 1012.1 |
| 20260504110503 | 3 | 130 | 0.0 | 0.0 | 0.00 | 0.00 | 0.00 | 84 | 1012.3 |
| 20260504100505 | 2 | 118 | 0.0 | 0.0 | 0.00 | 0.00 | 0.00 | 85 | 1012.0 |
| 20260504082002 | 2 | 152 | 0.0 | 0.0 | 0.00 | 0.00 | 0.00 | 84 | 1011.3 |
| 20260504081505 | 2 | 152 | 0.0 | 0.0 | 0.00 | 0.00 | 0.00 | 84 | 1011.3 |
| 20260504081004 | 2 | 152 | 0.0 | 0.0 | 0.00 | 0.00 | 0.00 | 84 | 1011.3 |
| 20260504080503 | 2 | 152 | 0.0 | 0.0 | 0.00 | 0.00 | 0.00 | 84 | 1011.4 |
| 20260504050503 | 1 | 119 | 0.0 | 0.0 | 0.00 | 0.00 | 0.00 | 78 | 1011.2 |
| 20260504050004 | 1 | 120 | 0.0 | 0.0 | 0.00 | 0.00 | 0.00 | 78 | 1011.2 |
| 20260504045504 | 1 | 120 | 0.0 | 0.0 | 0.00 | 0.00 | 0.00 | 79 | 1011.3 |
| 20260504045007 | 2 | 120 | 0.0 | 0.0 | 0.00 | 0.00 | 0.00 | 78 | 1011.3 |
| 20260504044510 | 2 | 120 | 0.0 | 0.0 | 0.00 | 0.00 | 0.00 | 77 | 1011.4 |
| 20260504044006 | 2 | 120 | 0.0 | 0.0 | 0.00 | 0.00 | 0.00 | 76 | 1011.5 |
| 20260504043504 | 2 | 120 | 0.0 | 0.0 | 0.00 | 0.00 | 0.00 | 77 | 1011.5 |
| 20260504043009 | 2 | 120 | 0.0 | 0.0 | 0.00 | 0.00 | 0.00 | 77 | 1011.6 |
| 20260504042503 | 2 | 120 | 0.0 | 0.0 | 0.00 | 0.00 | 0.00 | 76 | 1011.6 |
| 20260504042009 | 2 | 120 | 0.0 | 0.0 | 0.00 | 0.00 | 0.00 | 76 | 1011.5 |
| 20260504041514 | 2 | 120 | 0.0 | 0.0 | 0.00 | 0.00 | 0.00 | 74 | 1011.5 |
| 20260504041002 | 2 | 120 | 0.0 | 0.0 | 0.00 | 0.00 | 0.00 | 74 | 1011.4 |
| 20260504040510 | 2 | 120 | 0.0 | 0.0 | 0.00 | 0.00 | 0.00 | 74 | 1011.4 |
| 20260504040018 | 2 | 120 | 0.0 | 0.0 | 0.00 | 0.00 | 0.00 | 75 | 1011.3 |
| 20260504035511 | 2 | 120 | 0.0 | 0.0 | 0.00 | 0.00 | 0.00 | 75 | 1011.3 |
| 20260504035004 | 2 | 120 | 0.0 | 0.0 | 0.00 | 0.00 | 0.00 | 74 | 1011.3 |
| 20260504034505 | 2 | 120 | 0.0 | 0.0 | 0.00 | 0.00 | 0.00 | 76 | 1011.3 |
| 20260504034004 | 2 | 120 | 0.0 | 0.0 | 0.00 | 0.00 | 0.00 | 75 | 1011.3 |
| 20260504033508 | 2 | 120 | 0.0 | 0.0 | 0.00 | 0.00 | 0.00 | 74 | 1011.4 |
| 20260504033009 | 2 | 120 | 0.0 | 0.0 | 0.00 | 0.00 | 0.00 | 75 | 1011.4 |
| 20260504032504 | 2 | 120 | 0.0 | 0.0 | 0.00 | 0.00 | 0.00 | 75 | 1011.3 |
| 20260504032005 | 2 | 120 | 0.0 | 0.0 | 0.00 | 0.00 | 0.00 | 74 | 1011.2 |
| 20260504031504 | 3 | 120 | 0.0 | 0.0 | 0.00 | 0.00 | 0.00 | 73 | 1011.2 |
| 20260504031005 | 3 | 120 | 0.0 | 0.0 | 0.00 | 0.00 | 0.00 | 74 | 1011.2 |
| 20260504030506 | 3 | 120 | 0.0 | 0.0 | 0.00 | 0.00 | 0.00 | 74 | 1011.2 |
| 20260504030017 | 3 | 120 | 0.0 | 0.0 | 0.00 | 0.00 | 0.00 | 73 | 1011.2 |
| 20260504025503 | 3 | 120 | 0.0 | 0.0 | 0.00 | 0.00 | 0.00 | 73 | 1011.2 |
| 20260504025006 | 3 | 120 | 0.0 | 0.0 | 0.00 | 0.00 | 0.00 | 73 | 1011.2 |
| 20260504024522 | 3 | 120 | 0.0 | 0.0 | 0.00 | 0.00 | 0.00 | 72 | 1011.2 |
| 20260504024006 | 3 | 120 | 0.0 | 0.0 | 0.00 | 0.00 | 0.00 | 71 | 1011.1 |
| 20260504023503 | 3 | 121 | 0.0 | 0.0 | 0.00 | 0.00 | 0.00 | 70 | 1011.2 |
| 20260504023005 | 3 | 129 | 0.0 | 0.0 | 0.00 | 0.00 | 0.00 | 70 | 1011.1 |
| 20260504022504 | 3 | 134 | 0.0 | 0.0 | 0.00 | 0.00 | 0.00 | 70 | 1011.1 |
| 20260504022004 | 3 | 134 | 0.0 | 0.0 | 0.00 | 0.00 | 0.00 | 70 | 1011.0 |
| 20260504021508 | 3 | 133 | 0.0 | 0.0 | 0.00 | 0.00 | 0.00 | 71 | 1011.0 |
| 20260504021005 | 3 | 133 | 0.0 | 0.0 | 0.00 | 0.00 | 0.00 | 71 | 1011.0 |
| 20260504020505 | 3 | 133 | 0.0 | 0.0 | 0.00 | 0.00 | 0.00 | 70 | 1010.9 |
| 20260504020015 | 3 | 133 | 0.0 | 1.6 | 0.00 | 0.00 | 0.00 | 69 | 1011.0 |
| 20260504015505 | 4 | 133 | 0.0 | 1.6 | 0.00 | 0.00 | 0.00 | 68 | 1010.9 |
| 20260504015008 | 4 | 133 | 0.0 | 0.0 | 0.00 | 0.00 | 0.00 | 68 | 1010.9 |
| 20260504014507 | 4 | 127 | 0.0 | 3.2 | 0.00 | 0.00 | 0.00 | 67 | 1010.9 |
| 20260504014006 | 4 | 122 | 0.0 | 3.2 | 0.00 | 0.00 | 0.00 | 67 | 1010.8 |
| 20260504013508 | 4 | 121 | 0.0 | 3.2 | 0.00 | 0.00 | 0.00 | 67 | 1010.6 |
| 20260504013034 | 4 | 121 | 0.0 | 1.6 | 0.00 | 0.00 | 0.00 | 65 | 1010.5 |
| 20260504012504 | 5 | 121 | 0.0 | 1.6 | 0.00 | 0.00 | 0.00 | 65 | 1010.6 |
| 20260504012007 | 5 | 121 | 0.0 | 1.6 | 0.00 | 0.00 | 0.00 | 65 | 1010.6 |
| 20260504011507 | 5 | 121 | 0.0 | 1.6 | 0.00 | 0.00 | 0.00 | 64 | 1010.4 |
| 20260504011007 | 5 | 122 | 1.6 | 1.6 | 0.00 | 0.00 | 0.00 | 63 | 1010.3 |
| 20260504010502 | 5 | 122 | 0.0 | 1.6 | 0.00 | 0.00 | 0.00 | 63 | 1010.4 |
| 20260504010010 | 5 | 123 | 0.0 | 1.6 | 0.00 | 0.00 | 0.00 | 61 | 1010.3 |
| 20260504005505 | 5 | 123 | 1.6 | 1.6 | 0.00 | 0.00 | 0.00 | 63 | 1010.2 |
| 20260504005002 | 6 | 138 | 1.6 | 1.6 | 0.00 | 0.00 | 0.00 | 63 | 1010.1 |
| 20260504004516 | 6 | 139 | 1.6 | 1.6 | 0.00 | 0.00 | 0.00 | 62 | 1009.9 |
| 20260504004005 | 6 | 137 | 1.6 | 1.6 | 0.00 | 0.00 | 0.00 | 60 | 1009.8 |
| 20260504003507 | 6 | 144 | 1.6 | 1.6 | 0.00 | 0.00 | 0.00 | 59 | 1009.8 |
| 20260504003007 | 6 | 136 | 1.6 | 1.6 | 0.00 | 0.00 | 0.00 | 58 | 1009.7 |
| 20260504002506 | 7 | 130 | 1.6 | 1.6 | 0.00 | 0.00 | 0.00 | 59 | 1009.6 |
| 20260504002009 | 7 | 125 | 1.6 | 1.6 | 0.00 | 0.00 | 0.00 | 57 | 1009.5 |
| 20260504001506 | 7 | 150 | 1.6 | 1.6 | 0.00 | 0.00 | 0.00 | 54 | 1009.6 |
| 20260504001005 | 8 | 150 | 0.0 | 1.6 | 0.00 | 0.00 | 0.00 | 53 | 1009.5 |
| 20260504000506 | 8 | 291 | 0.0 | 1.6 | 0.00 | 0.00 | 0.00 | 54 | 1009.4 |
| 20260504000007 | 9 | 291 | 1.6 | 3.2 | 0.00 | 0.00 | 0.00 | 49 | 1009.2 |
| 20260503235503 | 10 | 291 | 0.0 | 3.2 | 0.00 | 0.00 | 0.00 | 49 | 1009.3 |
| 20260503235007 | 10 | 291 | 0.0 | 3.2 | 0.00 | 0.00 | 0.00 | 42 | 1009.2 |
| 20260503234513 | 10 | 291 | 1.6 | 3.2 | 0.00 | 0.00 | 0.00 | 40 | 1009.3 |
| 20260503234013 | 10 | 296 | 1.6 | 8.0 | 0.00 | 0.00 | 0.00 | 40 | 1009.3 |
| 20260503233507 | 10 | 312 | 3.2 | 8.0 | 0.00 | 0.00 | 0.00 | 39 | 1009.3 |
| 20260503233017 | 10 | 300 | 3.2 | 6.4 | 0.00 | 0.00 | 0.00 | 40 | 1009.3 |
| 20260503232508 | 10 | 298 | 3.2 | 4.8 | 0.00 | 0.00 | 0.00 | 40 | 1009.3 |